TimeMST,TemperatureF,Dew PointF,Humidity,Sea Level PressureIn,VisibilityMPH,Wind Direction,Wind SpeedMPH,Gust SpeedMPH,PrecipitationIn,Events,Conditions,WindDirDegrees,DateUTC
12:51 AM,59.0,44.1,58,30.10,10.0,Calm,Calm,-,N/A,,Scattered Clouds,0,2012-12-04 07:51:00
1:51 AM,59.0,43.0,55,30.11,10.0,Calm,Calm,-,N/A,,Scattered Clouds,0,2012-12-04 08:51:00
2:51 AM,57.0,43.0,59,30.12,10.0,Calm,Calm,-,N/A,,Partly Cloudy,0,2012-12-04 09:51:00
3:51 AM,55.9,42.1,60,30.13,10.0,Calm,Calm,-,N/A,,Partly Cloudy,0,2012-12-04 10:51:00
4:51 AM,55.0,42.1,62,30.13,10.0,East,3.5,-,N/A,,Partly Cloudy,80,2012-12-04 11:51:00
5:51 AM,55.0,43.0,64,30.14,10.0,Calm,Calm,-,N/A,,Partly Cloudy,0,2012-12-04 12:51:00
6:51 AM,54.0,42.1,64,30.18,10.0,Calm,Calm,-,N/A,,Mostly Cloudy,0,2012-12-04 13:51:00
7:51 AM,55.9,42.1,60,30.19,10.0,ESE,4.6,-,N/A,,Overcast,110,2012-12-04 14:51:00
8:51 AM,57.9,43.0,58,30.20,10.0,East,4.6,-,N/A,,Overcast,100,2012-12-04 15:51:00
9:51 AM,63.0,43.0,48,30.22,10.0,SE,3.5,-,N/A,,Mostly Cloudy,130,2012-12-04 16:51:00
10:51 AM,68.0,42.1,39,30.20,10.0,ESE,6.9,-,N/A,,Mostly Cloudy,120,2012-12-04 17:51:00
11:51 AM,70.0,42.1,36,30.17,10.0,East,4.6,-,N/A,,Mostly Cloudy,90,2012-12-04 18:51:00
12:51 PM,73.9,39.9,29,30.14,10.0,Variable,3.5,-,N/A,,Mostly Cloudy,0,2012-12-04 19:51:00
1:51 PM,75.9,39.9,27,30.11,10.0,WNW,5.8,-,N/A,,Scattered Clouds,300,2012-12-04 20:51:00
2:51 PM,75.9,39.9,27,30.08,10.0,Variable,3.5,-,N/A,,Scattered Clouds,0,2012-12-04 21:51:00
3:51 PM,77.0,39.0,25,30.08,10.0,NNW,4.6,-,N/A,,Mostly Cloudy,330,2012-12-04 22:51:00
4:51 PM,75.9,39.9,27,30.08,10.0,WNW,6.9,-,N/A,,Mostly Cloudy,290,2012-12-04 23:51:00
5:51 PM,73.0,39.9,30,30.09,10.0,WSW,3.5,-,N/A,,Mostly Cloudy,250,2012-12-05 00:51:00
6:51 PM,71.1,41.0,34,30.09,10.0,Calm,Calm,-,N/A,,Scattered Clouds,0,2012-12-05 01:51:00
7:51 PM,68.0,41.0,37,30.08,10.0,Calm,Calm,-,N/A,,Scattered Clouds,0,2012-12-05 02:51:00
8:51 PM,68.0,41.0,37,30.09,10.0,Calm,Calm,-,N/A,,Scattered Clouds,0,2012-12-05 03:51:00
9:51 PM,64.0,42.1,45,30.09,10.0,Calm,Calm,-,N/A,,Scattered Clouds,0,2012-12-05 04:51:00
10:51 PM,63.0,42.1,46,30.09,10.0,Calm,Calm,-,N/A,,Scattered Clouds,0,2012-12-05 05:51:00
11:51 PM,63.0,42.1,46,30.09,10.0,Calm,Calm,-,N/A,,Scattered Clouds,0,2012-12-05 06:51:00